When you browse on this site, cookies collect data to enhance your experience and personalize the content and advertising you see.
Visit our Privacy Policy to learn more. By continuing to use the site, you agree to this use of cookies and data.
  • In Latvia
  • List of Countries
  • For 7 days
  • Water Temperature
  • Satellite Maps
  • Weather Map
  • Weather Widgets
  • user-avatar
    Login

    Hourly Weather Djelfa

    Today, 23 July, Tuesday

    Time Temperature Precipitation Wind Pressure Humidity
    00:00 +27°C° 0 mm 3 mps 669 mmHg 36%
    01:00 +27°C° 0 mm 3 mps 669 mmHg 38%
    02:00 +26°C° 0 mm 3 mps 668 mmHg 39%
    03:00 +25°C° 0 mm 3 mps 668 mmHg 41%
    04:00 +25°C° 0 mm 3 mps 668 mmHg 41%
    05:00 +25°C° 0 mm 3 mps 668 mmHg 41%
    06:00 +25°C° 0 mm 3 mps 668 mmHg 42%
    07:00 +27°C° 0 mm 4 mps 669 mmHg 37%
    08:00 +28°C° 0 mm 4 mps 669 mmHg 33%
    09:00 +30°C° 0 mm 5 mps 669 mmHg 29%
    10:00 +32°C° 0 mm 4 mps 669 mmHg 27%
    11:00 +32°C° 0 mm 4 mps 669 mmHg 24%
    12:00 +33°C° 0 mm 3 mps 669 mmHg 22%
    13:00 +34°C° 0 mm 3 mps 669 mmHg 21%
    14:00 +34°C° 0 mm 3 mps 669 mmHg 20%
    15:00 +35°C° 0 mm 3 mps 669 mmHg 19%
    16:00 +34°C° 0 mm 4 mps 668 mmHg 20%
    17:00 +34°C° 0 mm 5 mps 668 mmHg 22%
    18:00 +33°C° 0 mm 6 mps 668 mmHg 23%
    19:00 +32°C° 0 mm 5 mps 668 mmHg 24%
    20:00 +32°C° 0 mm 4 mps 668 mmHg 25%
    21:00 +30°C° 0 mm 3 mps 667 mmHg 27%
    22:00 +29°C° 0 mm 4 mps 667 mmHg 27%
    23:00 +28°C° 0 mm 5 mps 667 mmHg 28%

    Tomorrow, 24 July, Wednesday

    Time Temperature Precipitation Wind Pressure Humidity
    00:00 +28°C° 0 mm 6 mps 667 mmHg 28%
    01:00 +27°C° 0 mm 5 mps 667 mmHg 29%
    02:00 +27°C° 0 mm 5 mps 667 mmHg 30%
    03:00 +26°C° 0 mm 5 mps 666 mmHg 31%
    04:00 +26°C° 0 mm 5 mps 667 mmHg 31%
    05:00 +26°C° 0 mm 5 mps 667 mmHg 31%
    06:00 +26°C° 0 mm 5 mps 667 mmHg 31%
    07:00 +28°C° 0 mm 6 mps 667 mmHg 28%
    08:00 +29°C° 0 mm 7 mps 668 mmHg 25%
    09:00 +32°C° 0 mm 8 mps 668 mmHg 23%
    10:00 +33°C° 0 mm 7 mps 668 mmHg 21%
    11:00 +34°C° 0 mm 7 mps 668 mmHg 20%
    12:00 +35°C° 0 mm 6 mps 668 mmHg 18%
    13:00 +36°C° 0 mm 5 mps 668 mmHg 16%
    14:00 +37°C° 0 mm 5 mps 668 mmHg 15%
    15:00 +37°C° 0 mm 4 mps 668 mmHg 13%
    16:00 +37°C° 0 mm 5 mps 667 mmHg 13%
    17:00 +36°C° 0 mm 5 mps 667 mmHg 13%
    18:00 +36°C° 0 mm 5 mps 667 mmHg 13%
    19:00 +35°C° 0 mm 5 mps 667 mmHg 15%
    20:00 +33°C° 0 mm 4 mps 667 mmHg 18%
    21:00 +31°C° 0 mm 3 mps 667 mmHg 21%
    22:00 +30°C° 0 mm 4 mps 667 mmHg 22%
    23:00 +30°C° 0 mm 4 mps 667 mmHg 22%

    Day after tomorrow, 25 July, Thursday

    Time Temperature Precipitation Wind Pressure Humidity
    00:00 +29°C° 0 mm 4 mps 667 mmHg 23%
    01:00 +28°C° 0 mm 4 mps 666 mmHg 23%
    02:00 +28°C° 0 mm 4 mps 666 mmHg 24%
    03:00 +27°C° 0 mm 4 mps 666 mmHg 25%
    04:00 +27°C° 0 mm 4 mps 666 mmHg 24%
    05:00 +27°C° 0 mm 4 mps 666 mmHg 24%
    06:00 +27°C° 0 mm 4 mps 666 mmHg 24%
    07:00 +29°C° 0 mm 4 mps 667 mmHg 21%
    08:00 +33°C° 0 mm 4 mps 668 mmHg 18%
    09:00 +35°C° 0 mm 5 mps 668 mmHg 15%
    10:00 +36°C° 0 mm 4 mps 668 mmHg 14%
    11:00 +37°C° 0 mm 4 mps 668 mmHg 12%
    12:00 +37°C° 0 mm 4 mps 668 mmHg 11%
    13:00 +39°C° 0 mm 5 mps 668 mmHg 11%
    14:00 +39°C° 0 mm 5 mps 667 mmHg 11%
    15:00 +39°C° 0 mm 6 mps 667 mmHg 11%
    16:00 +39°C° 0 mm 6 mps 667 mmHg 12%
    17:00 +37°C° 0 mm 5 mps 667 mmHg 12%
    18:00 +37°C° 0 mm 5 mps 667 mmHg 13%
    19:00 +35°C° 0 mm 6 mps 667 mmHg 18%
    20:00 +33°C° 0 mm 8 mps 667 mmHg 22%
    21:00 +32°C° 0 mm 9 mps 667 mmHg 27%
    22:00 +30°C° 0 mm 7 mps 667 mmHg 27%
    23:00 +30°C° 0 mm 5 mps 667 mmHg 28%

    26 July, Friday

    Time Temperature Precipitation Wind Pressure Humidity
    00:00 +29°C° 0 mm 4 mps 666 mmHg 28%
    01:00 +29°C° 0 mm 3 mps 666 mmHg 28%
    02:00 +28°C° 0 mm 2 mps 665 mmHg 28%
    03:00 +28°C° 0 mm 2 mps 665 mmHg 28%
    04:00 +28°C° 0 mm 2 mps 665 mmHg 28%
    05:00 +28°C° 0 mm 2 mps 665 mmHg 27%
    06:00 +28°C° 0 mm 2 mps 666 mmHg 27%
    07:00 +30°C° 0 mm 3 mps 666 mmHg 24%
    08:00 +31°C° 0 mm 3 mps 667 mmHg 22%
    09:00 +34°C° 0 mm 4 mps 667 mmHg 19%
    10:00 +35°C° 0 mm 4 mps 667 mmHg 17%
    11:00 +36°C° 0 mm 4 mps 667 mmHg 15%
    12:00 +37°C° 0 mm 4 mps 667 mmHg 12%
    13:00 +37°C° 0 mm 4 mps 666 mmHg 12%
    14:00 +37°C° 0 mm 4 mps 666 mmHg 12%
    15:00 +37°C° 0 mm 4 mps 666 mmHg 12%
    16:00 +37°C° 0 mm 4 mps 666 mmHg 13%
    17:00 +36°C° 0 mm 5 mps 665 mmHg 14%
    18:00 +36°C° 0 mm 6 mps 665 mmHg 16%
    19:00 +34°C° 0 mm 5 mps 665 mmHg 20%
    20:00 +32°C° 0 mm 4 mps 665 mmHg 25%
    21:00 +29°C° 0 mm 3 mps 665 mmHg 30%
    22:00 +29°C° 0 mm 3 mps 664 mmHg 29%
    23:00 +29°C° 0 mm 2 mps 664 mmHg 29%

    27 July, Saturday

    Time Temperature Precipitation Wind Pressure Humidity
    00:00 +29°C° 0 mm 2 mps 664 mmHg 29%
    01:00 +29°C° 0 mm 3 mps 664 mmHg 28%
    02:00 +29°C° 0 mm 3 mps 663 mmHg 27%
    03:00 +29°C° 0 mm 4 mps 663 mmHg 27%
    04:00 +29°C° 0 mm 4 mps 663 mmHg 29%
    05:00 +28°C° 0 mm 4 mps 663 mmHg 31%
    06:00 +28°C° 0 mm 4 mps 663 mmHg 33%
    07:00 +28°C° 0 mm 5 mps 663 mmHg 33%
    08:00 +28°C° 0 mm 6 mps 664 mmHg 32%
    09:00 +28°C° 0 mm 7 mps 664 mmHg 32%
    10:00 +31°C° 0 mm 8 mps 664 mmHg 27%
    11:00 +32°C° 0 mm 8 mps 664 mmHg 22%
    12:00 +34°C° 0 mm 8 mps 664 mmHg 18%
    13:00 +34°C° 0 mm 8 mps 664 mmHg 16%
    14:00 +34°C° 0 mm 9 mps 664 mmHg 15%
    15:00 +35°C° 0 mm 9 mps 664 mmHg 13%
    16:00 +34°C° 0 mm 9 mps 664 mmHg 14%
    17:00 +33°C° 0 mm 9 mps 663 mmHg 14%
    18:00 +31°C° 0 mm 9 mps 663 mmHg 14%
    19:00 +29°C° 0 mm 8 mps 663 mmHg 16%
    20:00 +27°C° 0 mm 7 mps 664 mmHg 18%
    21:00 +26°C° 0 mm 7 mps 664 mmHg 20%
    22:00 +24°C° 0 mm 7 mps 663 mmHg 22%
    23:00 +23°C° 0 mm 6 mps 663 mmHg 24%

    28 July, Sunday

    Time Temperature Precipitation Wind Pressure Humidity
    00:00 +22°C° 0 mm 6 mps 663 mmHg 27%
    01:00 +21°C° 0 mm 6 mps 663 mmHg 30%
    02:00 +21°C° 0 mm 6 mps 662 mmHg 33%
    03:00 +20°C° 0 mm 6 mps 662 mmHg 36%
    04:00 +20°C° 0 mm 6 mps 662 mmHg 38%
    05:00 +20°C° 0 mm 6 mps 663 mmHg 41%
    06:00 +21°C° 0 mm 5 mps 663 mmHg 43%
    07:00 +22°C° 0 mm 5 mps 663 mmHg 38%
    08:00 +25°C° 0 mm 4 mps 664 mmHg 33%
    09:00 +27°C° 0 mm 4 mps 665 mmHg 28%
    10:00 +28°C° 0 mm 3 mps 665 mmHg 25%
    11:00 +29°C° 0 mm 3 mps 665 mmHg 23%
    12:00 +31°C° 0 mm 3 mps 665 mmHg 20%
    13:00 +32°C° 0 mm 2 mps 665 mmHg 19%
    14:00 +32°C° 0 mm 2 mps 665 mmHg 17%
    15:00 +34°C° 0 mm 2 mps 665 mmHg 16%
    16:00 +34°C° 0 mm 2 mps 664 mmHg 16%
    17:00 +34°C° 0 mm 2 mps 664 mmHg 16%
    18:00 +34°C° 0 mm 2 mps 664 mmHg 17%
    19:00 +33°C° 0 mm 3 mps 664 mmHg 18%
    20:00 +31°C° 0 mm 3 mps 665 mmHg 20%
    21:00 +29°C° 0 mm 3 mps 665 mmHg 22%
    22:00 +29°C° 0 mm 3 mps 665 mmHg 24%
    23:00 +28°C° 0 mm 3 mps 664 mmHg 25%
    Show more